TimeCEST,TemperatureF,Dew PointF,Humidity,Sea Level PressureIn,VisibilityMPH,Wind Direction,Wind SpeedMPH,Gust SpeedMPH,PrecipitationIn,Events,Conditions,WindDirDegrees,DateUTC
12:45 AM,42.8,35.6,76,30.06,-9999.0,ESE,1.2,-,N/A,,Clear,110,2012-10-08 22:45:00
1:45 AM,42.8,33.8,70,30.06,-9999.0,East,2.3,-,N/A,,Clear,90,2012-10-08 23:45:00
2:00 AM,43,34,62,30.09,47,East,2.2,,,,Partly Cloudy,90,2012-10-09 00:00:00
2:45 AM,42.8,33.8,70,30.04,-9999.0,ENE,2.3,-,N/A,,Clear,70,2012-10-09 00:45:00
3:45 AM,41.0,33.8,76,30.01,-9999.0,ESE,3.5,-,N/A,,Clear,110,2012-10-09 01:45:00
4:45 AM,39.2,33.8,81,30.01,-9999.0,East,3.5,-,N/A,,Clear,100,2012-10-09 02:45:00
5:45 AM,39.2,33.8,81,29.98,-9999.0,SE,5.8,-,N/A,,Clear,140,2012-10-09 03:45:00
6:15 AM,37.4,33.8,87,29.98,-9999.0,SE,3.5,-,N/A,,Clear,130,2012-10-09 04:15:00
6:45 AM,37.4,33.8,87,29.98,-9999.0,East,3.5,-,N/A,,Clear,90,2012-10-09 04:45:00
7:00 AM,-9999,-9999,N/A,-9999,-9999.0,ESE,4.6,-,N/A,,Clear,110,2012-10-09 05:00:00
7:15 AM,37.4,33.8,87,29.98,-9999.0,East,4.6,-,N/A,,Clear,100,2012-10-09 05:15:00
7:45 AM,41.0,35.6,81,29.98,-9999.0,ESE,3.5,-,N/A,,Clear,110,2012-10-09 05:45:00
8:45 AM,46.4,39.2,76,29.95,-9999.0,SE,6.9,-,N/A,,Clear,130,2012-10-09 06:45:00
9:15 AM,48.2,41.0,76,29.95,-9999.0,SSE,6.9,-,N/A,,Clear,150,2012-10-09 07:15:00
9:45 AM,50.0,41.0,71,29.95,-9999.0,SSE,5.8,-,N/A,,Clear,150,2012-10-09 07:45:00
10:00 AM,-9999,-9999,N/A,-9999,-9999.0,South,11.5,-,N/A,,Dust Whirls,180,2012-10-09 08:00:00
10:45 AM,55.4,41.0,58,29.95,-9999.0,SSE,11.5,-,N/A,,Clear,150,2012-10-09 08:45:00
11:15 AM,55.4,41.0,58,29.92,-9999.0,SE,12.7,-,N/A,,Clear,140,2012-10-09 09:15:00
11:45 AM,55.4,41.0,58,29.92,-9999.0,SE,12.7,-,N/A,,Clear,140,2012-10-09 09:45:00
12:15 PM,57.2,39.2,51,29.92,-9999.0,SSE,15.0,-,N/A,,Clear,150,2012-10-09 10:15:00
1:00 PM,-9999,-9999,N/A,-9999,-9999.0,SSE,11.5,-,N/A,,Dust Whirls,160,2012-10-09 11:00:00
1:15 PM,59.0,39.2,48,29.89,-9999.0,SSE,12.7,-,N/A,,Clear,150,2012-10-09 11:15:00
1:45 PM,59.0,39.2,48,29.89,-9999.0,SSE,9.2,-,N/A,,Clear,150,2012-10-09 11:45:00
2:00 PM,58,39,38,29.88,37,SSE,8.9,,,,Partly Cloudy,150,2012-10-09 12:00:00
2:15 PM,59.0,39.2,48,29.86,-9999.0,SSE,8.1,-,N/A,,Clear,160,2012-10-09 12:15:00
2:45 PM,59.0,39.2,48,29.86,-9999.0,SSE,9.2,-,N/A,,Clear,160,2012-10-09 12:45:00
3:15 PM,59.0,39.2,48,29.86,-9999.0,SSE,8.1,-,N/A,,Clear,150,2012-10-09 13:15:00
3:45 PM,59.0,41.0,51,29.86,-9999.0,South,6.9,-,N/A,,Clear,170,2012-10-09 13:45:00
4:00 PM,-9999,-9999,N/A,-9999,-9999.0,Variable,3.5,-,N/A,,Clear,0,2012-10-09 14:00:00
4:15 PM,59.0,41.0,51,29.86,-9999.0,SSE,5.8,-,N/A,,Clear,160,2012-10-09 14:15:00
4:45 PM,59.0,41.0,51,29.86,-9999.0,SSE,3.5,-,N/A,,Clear,160,2012-10-09 14:45:00
5:15 PM,59.0,41.0,51,29.86,-9999.0,South,4.6,-,N/A,,Clear,170,2012-10-09 15:15:00
5:45 PM,57.2,41.0,55,29.86,-9999.0,SSE,1.2,-,N/A,,Clear,150,2012-10-09 15:45:00
6:15 PM,55.4,41.0,58,29.86,-9999.0,NNE,1.2,-,N/A,,Clear,30,2012-10-09 16:15:00
6:45 PM,55.4,41.0,58,29.86,-9999.0,NNE,2.3,-,N/A,,Clear,30,2012-10-09 16:45:00
7:15 PM,55.4,41.0,58,29.86,-9999.0,NNE,2.3,-,N/A,,Clear,30,2012-10-09 17:15:00
7:45 PM,55.4,41.0,58,29.86,-9999.0,North,2.3,-,N/A,,Clear,10,2012-10-09 17:45:00
8:00 PM,54,40,48,29.86,37,North,2.2,,,,Partly Cloudy,10,2012-10-09 18:00:00
8:15 PM,53.6,39.2,58,29.86,-9999.0,Calm,Calm,-,N/A,,Clear,0,2012-10-09 18:15:00
8:45 PM,53.6,39.2,58,29.89,-9999.0,NW,3.5,-,N/A,,Clear,320,2012-10-09 18:45:00
9:15 PM,51.8,41.0,67,29.89,-9999.0,NW,2.3,-,N/A,,Clear,310,2012-10-09 19:15:00
9:45 PM,53.6,39.2,58,29.89,-9999.0,NW,4.6,-,N/A,,Clear,310,2012-10-09 19:45:00
10:45 PM,50.0,39.2,66,29.89,-9999.0,NW,4.6,-,N/A,,Clear,310,2012-10-09 20:45:00
11:45 PM,53.6,39.2,58,29.89,-9999.0,WNW,4.6,-,N/A,,Clear,300,2012-10-09 21:45:00